Location: Gad�tanya
(48.0500°N, 20.8500°E)
Time: 09:49:58
(UTC+00:00)

SL-16 R/B - Pass Details

Date: 05 July 2020
Orbit: 840 x 850 km, 71.0° (Epoch: 14 August)

Event Time Altitude Azimuth Distance (km) Brightness Sun altitude
Exits shadow 21:18:43 24° 132° (SE) 1,701 3.3 -16.9°
Maximum altitude 21:20:26 28° 103° (ESE) 1,551 3.3 -17.0°
Drops below altitude 10° 21:25:09 10° 47° (NE) 2,479 4.9 -17.2°
Sets 21:27:55 0° 36° (NE) 3,420 5.9 -17.4°
